CAPE
1166 1150 1123 1079 1055 1047 1072 1088 1026 1018 972 890 731 670 729 677 546 440 386 339 0 0 77 94 0 0 0 0 0 0 0 0 0 0 0 0 0 0 0 0 0 0
1268 1224 1164 1106 1076 1052 1069 1112 1146 1063 1051 956 722 672 736 657 544 437 328 0 0 216 255 128 0 0 0 0 0 0 0 0 0 0 0 0 0 0 0 0 0 0
1347 1306 1233 1204 1197 1205 1228 1260 1283 1232 1138 967 852 842 769 622 511 400 0 0 52 313 294 137 0 0 0 0 0 0 0 0 0 0 0 0 0 0 0 0 0 0
1395 1344 1305 1306 1298 1320 1328 1343 1314 1208 1145 964 833 767 604 502 411 327 0 0 328 349 296 131 0 0 0 0 0 0 0 0 0 0 0 0 0 0 0 0 0 0
1409 1376 1360 1379 1372 1359 1407 1417 1363 1210 1148 1056 843 632 458 375 343 351 323 343 365 364 279 0 0 0 0 0 0 0 0 0 0 0 0 0 0 0 0 0 0 0
1436 1415 1418 1444 1455 1431 1439 1473 1425 1340 1233 1116 934 612 423 408 460 410 380 370 351 266 14 0 0 0 0 0 0 0 0 0 0 0 0 0 0 0 0 0 0 2
1446 1424 1458 1516 1534 1484 1458 1469 1455 1336 1189 1091 908 616 460 499 506 462 434 410 0 0 0 0 0 0 0 0 0 0 0 0 0 0 0 0 0 0 0 0 6 74
1463 1442 1469 1512 1520 1490 1491 1455 1424 1293 1098 1005 749 640 543 584 544 526 532 463 4 0 0 0 0 0 0 0 0 0 0 0 0 0 0 0 0 0 28 0 70 94
1568 1485 1453 1436 1422 1422 1466 1463 1393 1232 1017 930 784 708 678 650 601 578 595 542 22 0 0 0 0 0 0 0 0 0 0 0 0 0 0 0 4 32 45 29 49 76
1642 1585 1478 1385 1333 1345 1354 1396 1393 1158 970 891 792 776 782 715 634 616 619 527 354 0 0 0 0 0 0 0 0 0 0 0 0 0 0 40 53 44 33 0 0 10
1698 1672 1658 1486 1329 1270 1401 1404 1332 1094 954 921 877 913 840 735 674 627 583 448 394 49 0 0 0 0 0 0 0 0 0 0 0 0 0 10 7 0 0 0 0 17
1760 1751 1762 1707 1474 1338 1223 1241 1219 1030 983 1008 1035 1010 847 763 680 602 499 441 389 0 0 0 0 0 0 0 0 0 0 0 0 0 0 0 0 0 0 1 56 51
1790 1815 1834 1837 1711 1434 1172 1184 1181 1071 1086 1101 1094 998 857 764 688 540 442 463 368 0 0 0 0 0 0 0 0 0 0 0 0 0 0 0 0 0 21 83 54 16
1798 1884 1985 1961 1849 1565 1179 1229 1236 1208 1182 1157 1081 910 808 768 689 510 469 509 443 101 0 0 0 0 0 0 0 0 0 0 0 0 0 0 0 0 57 29 13 3
1821 1910 1935 1919 1834 1670 1282 1306 1314 1291 1269 1189 971 906 767 739 615 475 497 586 558 315 0 0 0 0 172 0 0 0 0 0 0 0 0 0 10 61 60 31 13 0
1811 1778 1856 1936 1881 1701 1299 1314 1408 1399 1418 1301 943 882 682 731 574 521 560 653 614 357 0 0 0 0 226 204 0 0 0 0 0 0 0 8 76 104 86 53 26 10
1843 1822 1828 1920 1927 1814 1600 1357 1410 1416 1402 1368 1048 848 606 648 556 544 602 647 590 320 0 0 0 36 224 260 224 204 0 0 6 86 173 86 124 88 67 62 37 15
1835 1805 1836 1882 1866 1840 1687 1332 1406 1487 1520 1415 1078 829 584 600 656 665 675 680 548 302 90 73 0 0 198 256 301 281 260 151 256 241 74 127 125 23 11 33 20 3
1816 1794 1862 1906 1870 1809 1661 1276 1337 1452 1550 1319 1069 748 539 638 619 363 666 720 593 367 201 144 118 0 164 250 328 351 314 314 268 40 149 124 36 5 19 22 11 0
1742 1781 1858 1854 1819 1757 1597 1332 1315 1394 1490 1384 1096 746 574 634 595 342 511 707 621 394 254 168 147 156 184 272 342 352 359 153 114 88 90 69 45 18 5 10 8 0
1730 1821 1829 1742 1620 1544 1428 1376 1422 1459 1380 1275 1095 769 594 733 762 634 568 727 630 446 305 214 186 189 231 304 367 386 267 108 66 77 94 63 75 55 14 4 0 0
1644 1645 1627 1572 1530 1542 1460 1431 1429 1410 1456 1277 1050 719 642 754 820 603 579 594 554 522 425 343 268 230 283 352 395 346 267 55 77 113 88 57 64 73 32 10 0 0
1486 1428 1452 1547 1600 1596 1518 1398 1326 1356 1395 1228 1005 781 693 772 793 711 491 532 563 536 470 406 321 280 337 359 380 112 62 58 52 55 71 79 76 78 44 24 0 0
1399 1402 1426 1493 1565 1588 1579 1407 1164 990 1194 1195 1023 842 873 900 480 722 597 567 542 450 462 461 378 342 351 319 92 108 84 52 79 112 53 27 26 37 28 21 0 0
1398 1380 1412 1424 1487 1614 1648 1506 1252 1053 974 921 822 784 858 584 473 508 478 474 500 500 461 407 368 364 340 214 96 92 98 57 75 86 32 18 11 7 3 6 2 0
1398 1325 1344 1541 1660 1652 1611 1518 1463 1226 1097 996 772 629 671 634 608 338 548 594 606 571 488 371 260 174 125 66 105 78 35 156 66 21 47 18 3 1 1 0 0 0
Wind_Speed
28 28 29 29 29 29 30 30 25 20 19 22 23 22 22 22 23 22 20 19 nan nan nan nan nan nan nan nan nan nan nan nan nan nan nan nan nan nan nan nan nan nan
27 28 29 29 29 29 29 29 26 20 22 23 22 23 22 23 22 23 22 nan nan 20 19 19 nan nan nan nan nan nan nan nan nan nan nan nan nan nan nan nan nan nan
27 27 29 29 29 30 29 28 26 23 25 24 24 23 23 22 23 21 nan nan nan 20 19 20 nan nan nan nan nan nan nan nan nan nan nan nan nan nan nan nan nan nan
26 27 28 29 30 30 28 27 25 26 27 26 23 23 23 22 22 23 nan nan 23 21 20 20 nan nan nan nan nan nan nan nan nan nan nan nan nan nan nan nan nan nan
26 27 28 29 28 28 27 27 26 26 27 25 25 24 24 22 22 22 23 23 23 23 21 nan nan nan nan nan nan nan nan nan nan nan nan nan nan nan nan nan nan nan
26 26 27 28 28 28 26 26 26 27 27 26 25 25 24 22 22 22 23 24 23 24 nan nan nan nan nan nan nan nan nan nan nan nan nan nan nan nan nan nan nan nan
27 27 27 28 29 28 27 26 26 27 27 26 27 25 24 23 22 23 23 24 nan nan nan nan nan nan nan nan nan nan nan nan nan nan nan nan nan nan nan nan nan nan
27 27 28 28 29 28 27 27 27 27 27 27 26 25 24 23 24 24 23 24 nan nan nan nan nan nan nan nan nan nan nan nan nan nan nan nan nan nan nan nan nan nan
27 27 28 30 29 28 27 28 28 28 27 27 25 25 23 24 25 25 24 24 nan nan nan nan nan nan nan nan nan nan nan nan nan nan nan nan nan nan nan nan nan nan
26 27 28 30 29 27 27 28 28 28 27 26 26 25 25 24 25 25 25 25 25 nan nan nan nan nan nan nan nan nan nan nan nan nan nan nan nan nan nan nan nan nan
25 26 27 29 30 27 27 28 28 28 27 26 26 25 25 26 24 25 26 25 26 nan nan nan nan nan nan nan nan nan nan nan nan nan nan nan nan nan nan nan nan nan
25 24 26 28 29 29 29 29 29 29 28 25 25 26 26 25 25 25 25 25 25 nan nan nan nan nan nan nan nan nan nan nan nan nan nan nan nan nan nan nan nan nan
23 23 25 28 29 30 30 29 30 30 28 26 25 27 27 26 25 26 25 26 25 nan nan nan nan nan nan nan nan nan nan nan nan nan nan nan nan nan nan nan nan nan
22 24 26 28 29 30 31 31 30 29 28 26 26 27 28 27 27 26 25 25 26 26 nan nan nan nan nan nan nan nan nan nan nan nan nan nan nan nan nan nan nan nan
23 25 27 29 30 31 32 31 30 29 28 27 26 27 28 28 27 27 27 27 27 27 nan nan nan nan 22 nan nan nan nan nan nan nan nan nan nan nan nan nan nan nan
25 27 27 29 29 31 33 32 31 29 28 27 27 28 29 28 28 27 28 28 28 27 nan nan nan nan 23 27 nan nan nan nan nan nan nan nan nan 36 nan nan nan nan
27 27 28 29 30 31 32 33 32 30 29 28 28 28 29 29 28 28 28 28 28 28 nan nan nan nan 28 29 30 33 nan nan nan nan 34 nan 36 nan nan nan nan nan
29 29 29 30 31 31 32 34 33 31 29 28 28 28 28 29 29 28 28 27 28 28 nan nan nan nan 31 31 33 35 35 34 34 34 nan 36 36 nan nan nan nan nan
30 30 31 32 31 31 33 35 34 31 27 27 27 27 29 28 30 30 26 27 28 28 27 26 26 nan 32 33 35 37 38 37 34 nan 36 36 nan nan nan nan nan nan
31 32 33 33 32 32 34 35 35 30 27 26 27 28 29 30 30 28 29 28 28 28 27 26 27 29 34 35 36 38 39 38 35 nan nan nan nan nan nan nan nan nan
32 32 34 34 33 33 34 34 32 29 27 26 27 28 29 29 28 29 28 27 27 27 28 28 27 33 35 37 38 39 40 38 nan nan nan nan nan nan nan nan nan nan
34 33 34 35 35 34 33 32 30 28 28 27 28 29 29 28 26 27 27 27 28 29 28 28 29 35 37 39 40 39 39 nan nan 35 nan nan nan nan nan nan nan nan
34 35 35 37 36 34 32 31 28 26 27 29 30 31 31 29 28 26 25 26 28 28 29 29 31 34 38 41 40 40 nan nan nan nan nan nan nan nan nan nan nan nan
35 36 38 38 37 32 29 28 29 29 29 30 32 33 30 28 30 28 26 26 28 28 28 31 31 34 38 39 nan 40 nan nan nan 37 nan nan nan nan nan nan nan nan
37 38 39 40 36 30 27 27 29 29 31 36 35 32 31 34 33 28 25 25 26 28 30 32 33 34 36 38 nan nan nan nan nan nan nan nan nan nan nan nan nan nan
40 41 41 40 35 30 30 28 27 30 38 44 40 34 35 33 30 27 27 26 27 28 28 31 34 34 35 nan 41 nan nan 40 nan nan nan nan nan nan nan nan nan nan
Wind_Direction
293 292 294 294 293 294 295 296 291 286 284 282 286 286 289 285 285 287 290 290 nan nan nan nan nan nan nan nan nan nan nan nan nan nan nan nan nan nan nan nan nan nan
294 293 291 292 290 289 292 296 301 296 290 287 283 283 281 283 285 288 291 nan nan 290 287 284 nan nan nan nan nan nan nan nan nan nan nan nan nan nan nan nan nan nan
289 292 296 297 293 294 297 298 299 291 287 285 281 282 282 280 284 283 nan nan nan 289 286 284 nan nan nan nan nan nan nan nan nan nan nan nan nan nan nan nan nan nan
290 294 294 294 293 296 296 295 290 282 279 281 284 283 280 278 280 283 nan nan 289 289 286 283 nan nan nan nan nan nan nan nan nan nan nan nan nan nan nan nan nan nan
290 292 293 293 292 295 294 294 290 285 287 285 279 278 276 277 278 280 282 284 287 289 288 nan nan nan nan nan nan nan nan nan nan nan nan nan nan nan nan nan nan nan
287 292 294 294 295 296 293 292 291 288 285 281 283 278 277 278 278 280 283 286 287 290 nan nan nan nan nan nan nan nan nan nan nan nan nan nan nan nan nan nan nan nan
290 292 295 292 294 296 292 288 286 285 285 283 277 279 278 279 279 281 283 285 nan nan nan nan nan nan nan nan nan nan nan nan nan nan nan nan nan nan nan nan nan nan
288 289 291 291 295 292 288 285 284 283 282 278 280 278 280 281 280 279 281 285 nan nan nan nan nan nan nan nan nan nan nan nan nan nan nan nan nan nan nan nan nan nan
284 288 290 293 293 289 288 286 283 282 282 283 279 276 275 279 281 282 284 285 nan nan nan nan nan nan nan nan nan nan nan nan nan nan nan nan nan nan nan nan nan nan
284 286 292 292 292 286 287 285 283 282 282 281 277 274 276 274 279 283 284 286 287 nan nan nan nan nan nan nan nan nan nan nan nan nan nan nan nan nan nan nan nan nan
283 286 291 293 290 283 285 284 284 283 280 279 273 272 272 274 277 279 282 285 288 nan nan nan nan nan nan nan nan nan nan nan nan nan nan nan nan nan nan nan nan nan
283 286 291 290 286 282 283 283 282 282 281 274 273 274 272 275 280 279 282 286 287 nan nan nan nan nan nan nan nan nan nan nan nan nan nan nan nan nan nan nan nan nan
284 288 284 282 280 278 277 279 281 282 282 278 272 273 275 276 276 279 280 285 287 nan nan nan nan nan nan nan nan nan nan nan nan nan nan nan nan nan nan nan nan nan
282 279 276 275 273 275 277 278 280 282 282 278 274 274 275 278 280 282 281 282 285 289 nan nan nan nan nan nan nan nan nan nan nan nan nan nan nan nan nan nan nan nan
272 269 268 269 272 274 275 277 279 282 283 281 278 274 271 276 279 282 283 281 282 286 nan nan nan nan 293 nan nan nan nan nan nan nan nan nan nan nan nan nan nan nan
268 265 266 267 270 274 276 277 279 281 284 283 280 276 275 277 280 282 284 287 287 287 nan nan nan nan 296 305 nan nan nan nan nan nan nan nan nan 299 nan nan nan nan
264 265 264 267 269 269 271 278 283 283 284 283 278 277 279 281 282 284 284 286 291 292 nan nan nan nan 304 305 304 302 nan nan nan nan 300 nan 299 nan nan nan nan nan
263 264 265 266 266 270 274 277 278 281 284 285 281 279 278 279 283 285 286 288 289 290 nan nan nan nan 305 305 303 303 301 299 299 300 nan 299 299 nan nan nan nan nan
264 266 264 264 266 269 272 275 278 282 285 286 287 283 278 283 279 276 282 287 290 292 294 294 293 nan 305 304 303 304 305 301 298 nan 298 300 nan nan nan nan nan nan
263 265 263 264 264 266 270 275 280 288 292 288 284 281 281 280 286 289 282 288 292 295 295 295 295 300 304 304 304 305 303 299 298 nan nan nan nan nan nan nan nan nan
262 261 262 262 265 267 270 276 283 289 292 287 283 284 282 283 286 282 282 285 290 291 293 296 295 301 303 304 304 303 305 302 nan nan nan nan nan nan nan nan nan nan
262 260 261 263 266 268 272 276 285 294 297 287 281 276 272 274 276 279 284 287 290 293 294 296 292 301 303 304 304 305 306 nan nan 297 nan nan nan nan nan nan nan nan
262 261 259 261 265 269 273 278 285 290 289 282 279 273 270 271 276 279 281 287 292 294 296 292 289 299 304 304 307 307 nan nan nan nan nan nan nan nan nan nan nan nan
259 259 259 260 264 269 272 281 291 290 289 283 280 272 268 270 272 275 281 286 292 294 294 293 292 298 305 308 nan 304 nan nan nan 300 nan nan nan nan nan nan nan nan
255 256 258 262 265 267 270 282 291 288 279 272 268 268 267 262 261 272 279 280 283 287 287 292 291 297 305 306 nan nan nan nan nan nan nan nan nan nan nan nan nan nan
250 253 252 257 264 264 260 263 266 266 263 262 261 262 261 260 262 269 280 279 280 286 291 292 292 294 302 nan 308 nan nan 301 nan nan nan nan nan nan nan nan nan nan